When you browse on this site, cookies collect data to enhance your experience and personalize the content and advertising you see.
Visit our Privacy Policy to learn more. By continuing to use the site, you agree to this use of cookies and data.
  • In Lithuania
  • List of Countries
  • For 7 days
  • Water Temperature
  • Weather Map
  • Weather Widgets
  • user-avatar
    Login

    Hourly Weather Escaldes-Engordany

    Today, 29 March, Sunday

    Time Temperature Precipitation Wind Pressure Humidity
    00:00 -1°C° 0 mm 2 mps 636 mmHg 90%
    01:00 -1°C° 0 mm 2 mps 636 mmHg 89%
    02:00 -1°C° 0 mm 2 mps 636 mmHg 88%
    03:00 -1°C° 0 mm 2 mps 635 mmHg 88%
    04:00 -1°C° 0 mm 2 mps 635 mmHg 87%
    05:00 -1°C° 0 mm 2 mps 635 mmHg 87%
    06:00 -1°C° 0 mm 2 mps 635 mmHg 87%
    07:00 +2°C° 0 mm 2 mps 636 mmHg 79%
    08:00 +4°C° 0 mm 2 mps 637 mmHg 72%
    09:00 +6°C° 0 mm 2 mps 637 mmHg 64%
    10:00 +7°C° 0 mm 2 mps 637 mmHg 62%
    11:00 +8°C° 0 mm 2 mps 637 mmHg 60%
    12:00 +9°C° 0 mm 2 mps 637 mmHg 58%
    13:00 +8°C° 0.1 mm 2 mps 637 mmHg 64%
    14:00 +7°C° 0.1 mm 2 mps 636 mmHg 69%
    15:00 +7°C° 0.1 mm 2 mps 636 mmHg 75%
    16:00 +5°C° 0.1 mm 2 mps 635 mmHg 80%
    17:00 +4°C° 0.1 mm 2 mps 635 mmHg 84%
    18:00 +3°C° 0.1 mm 2 mps 635 mmHg 89%
    19:00 +2°C° 0.1 mm 2 mps 635 mmHg 90%
    20:00 +3°C° 0.1 mm 1 mps 635 mmHg 91%
    21:00 +2°C° 0.1 mm 1 mps 635 mmHg 92%
    22:00 +1°C° 0.1 mm 2 mps 634 mmHg 92%
    23:00 +1°C° 0.1 mm 2 mps 634 mmHg 92%

    Tomorrow, 30 March, Monday

    Time Temperature Precipitation Wind Pressure Humidity
    00:00 -1°C° 0.1 mm 2 mps 634 mmHg 92%
    01:00 -1°C° 0.3 mm 2 mps 634 mmHg 93%
    02:00 -1°C° 0.3 mm 2 mps 633 mmHg 94%
    03:00 -2°C° 0.3 mm 2 mps 633 mmHg 94%
    04:00 -3°C° 1 mm 2 mps 633 mmHg 94%
    05:00 -3°C° 1 mm 2 mps 632 mmHg 94%
    06:00 -5°C° 1 mm 3 mps 632 mmHg 94%
    07:00 -5°C° 1.4 mm 3 mps 632 mmHg 92%
    08:00 -5°C° 1.4 mm 3 mps 632 mmHg 91%
    09:00 -6°C° 1.4 mm 3 mps 632 mmHg 89%
    10:00 -5°C° 1.1 mm 3 mps 633 mmHg 89%
    11:00 -4°C° 1.1 mm 2 mps 633 mmHg 88%
    12:00 -3°C° 1.1 mm 2 mps 633 mmHg 88%
    13:00 -3°C° 0.6 mm 2 mps 633 mmHg 88%
    14:00 -2°C° 0.6 mm 2 mps 633 mmHg 89%
    15:00 -2°C° 0.6 mm 2 mps 633 mmHg 90%
    16:00 -3°C° 0.5 mm 2 mps 632 mmHg 91%
    17:00 -1°C° 0.5 mm 1 mps 632 mmHg 93%
    18:00 -2°C° 0.5 mm 1 mps 632 mmHg 94%
    19:00 -3°C° 0.3 mm 1 mps 632 mmHg 94%
    20:00 -4°C° 0.3 mm 1 mps 632 mmHg 94%
    21:00 -6°C° 0.3 mm 1 mps 632 mmHg 94%
    22:00 -6°C° 0.1 mm 1 mps 632 mmHg 94%
    23:00 -6°C° 0.1 mm 1 mps 632 mmHg 93%

    Day after tomorrow, 31 March, Tuesday

    Time Temperature Precipitation Wind Pressure Humidity
    00:00 -7°C° 0.1 mm 1 mps 631 mmHg 93%
    01:00 -7°C° 0 mm 1 mps 631 mmHg 91%
    02:00 -6°C° 0 mm 1 mps 631 mmHg 90%
    03:00 -6°C° 0 mm 1 mps 631 mmHg 89%
    04:00 -6°C° 0 mm 1 mps 632 mmHg 90%
    05:00 -4°C° 0 mm 1 mps 632 mmHg 91%
    06:00 -3°C° 0 mm 1 mps 632 mmHg 92%
    07:00 -2°C° 0 mm 1 mps 633 mmHg 90%
    08:00 0°C° 0 mm 1 mps 634 mmHg 89%
    09:00 +2°C° 0 mm 1 mps 634 mmHg 87%
    10:00 +2°C° 0.1 mm 1 mps 634 mmHg 89%
    11:00 +3°C° 0.1 mm 1 mps 635 mmHg 91%
    12:00 +4°C° 0.1 mm 1 mps 635 mmHg 93%
    13:00 +4°C° 0.2 mm 1 mps 635 mmHg 93%
    14:00 +4°C° 0.2 mm 1 mps 634 mmHg 92%
    15:00 +4°C° 0.2 mm 1 mps 634 mmHg 91%
    16:00 +4°C° 0 mm 1 mps 634 mmHg 93%
    17:00 +3°C° 0 mm 1 mps 634 mmHg 95%
    18:00 +2°C° 0 mm 1 mps 634 mmHg 96%
    19:00 +2°C° 0 mm 1 mps 634 mmHg 95%
    20:00 +1°C° 0 mm 1 mps 634 mmHg 94%
    21:00 +1°C° 0 mm 1 mps 634 mmHg 93%
    22:00 +1°C° 0 mm 1 mps 634 mmHg 93%
    23:00 +1°C° 0 mm 1 mps 634 mmHg 93%

    1 April, Wednesday

    Time Temperature Precipitation Wind Pressure Humidity
    00:00 +2°C° 0 mm 1 mps 634 mmHg 93%
    01:00 +2°C° 0.1 mm 1 mps 634 mmHg 94%
    02:00 +2°C° 0.1 mm 1 mps 633 mmHg 94%
    03:00 +2°C° 0.1 mm 1 mps 633 mmHg 95%
    04:00 +2°C° 0 mm 1 mps 633 mmHg 95%
    05:00 +2°C° 0 mm 1 mps 633 mmHg 95%
    06:00 +2°C° 0 mm 1 mps 633 mmHg 95%
    07:00 +3°C° 0.2 mm 1 mps 634 mmHg 94%
    08:00 +4°C° 0.2 mm 1 mps 634 mmHg 94%
    09:00 +5°C° 0.2 mm 1 mps 634 mmHg 94%
    10:00 +5°C° 0.7 mm 1 mps 634 mmHg 94%
    11:00 +5°C° 0.7 mm 1 mps 635 mmHg 95%
    12:00 +5°C° 0.7 mm 1 mps 635 mmHg 95%
    13:00 +5°C° 0.8 mm 1 mps 634 mmHg 96%
    14:00 +5°C° 0.8 mm 1 mps 634 mmHg 97%
    15:00 +4°C° 0.8 mm 1 mps 634 mmHg 97%
    16:00 +4°C° 0.7 mm 1 mps 634 mmHg 98%
    17:00 +4°C° 0.7 mm 1 mps 634 mmHg 98%
    18:00 +3°C° 0.7 mm 1 mps 634 mmHg 98%
    19:00 +3°C° 0.5 mm 1 mps 634 mmHg 98%
    20:00 +3°C° 0.5 mm 1 mps 634 mmHg 98%
    21:00 +3°C° 0.5 mm 1 mps 634 mmHg 98%
    22:00 +3°C° 0.2 mm 1 mps 634 mmHg 97%
    23:00 +3°C° 0.2 mm 1 mps 634 mmHg 97%

    2 April, Thursday

    Time Temperature Precipitation Wind Pressure Humidity
    00:00 +3°C° 0.2 mm 1 mps 633 mmHg 96%
    01:00 +3°C° 0.2 mm 1 mps 633 mmHg 96%
    02:00 +3°C° 0.2 mm 1 mps 633 mmHg 96%
    03:00 +2°C° 0.2 mm 1 mps 632 mmHg 96%
    04:00 +3°C° 0.1 mm 1 mps 632 mmHg 96%
    05:00 +3°C° 0.1 mm 1 mps 632 mmHg 96%
    06:00 +3°C° 0.1 mm 1 mps 632 mmHg 97%
    07:00 +3°C° 0.4 mm 1 mps 632 mmHg 97%
    08:00 +4°C° 0.4 mm 1 mps 633 mmHg 97%
    09:00 +4°C° 0.4 mm 1 mps 633 mmHg 98%
    10:00 +4°C° 0.3 mm 1 mps 633 mmHg 97%
    11:00 +5°C° 0.3 mm 1 mps 633 mmHg 97%
    12:00 +5°C° 0.3 mm 1 mps 633 mmHg 97%
    13:00 +5°C° 0.2 mm 1 mps 633 mmHg 96%
    14:00 +5°C° 0.2 mm 1 mps 633 mmHg 96%
    15:00 +4°C° 0.2 mm 2 mps 633 mmHg 95%
    16:00 +4°C° 0.3 mm 2 mps 632 mmHg 96%
    17:00 +3°C° 0.3 mm 2 mps 632 mmHg 96%
    18:00 +4°C° 0.3 mm 1 mps 632 mmHg 97%
    19:00 +2°C° 0.2 mm 2 mps 632 mmHg 97%
    20:00 +2°C° 0.2 mm 2 mps 633 mmHg 96%
    21:00 +1°C° 0.2 mm 2 mps 633 mmHg 96%
    22:00 +1°C° 0 mm 2 mps 633 mmHg 95%
    23:00 +1°C° 0 mm 2 mps 633 mmHg 95%

    3 April, Friday

    Time Temperature Precipitation Wind Pressure Humidity
    00:00 -1°C° 0 mm 2 mps 633 mmHg 94%
    01:00 -1°C° 0.2 mm 2 mps 632 mmHg 94%
    02:00 -1°C° 0.2 mm 2 mps 632 mmHg 94%
    03:00 -1°C° 0.2 mm 2 mps 632 mmHg 94%
    04:00 -1°C° 0.4 mm 2 mps 632 mmHg 94%
    05:00 -1°C° 0.4 mm 2 mps 632 mmHg 94%
    06:00 -1°C° 0.4 mm 2 mps 633 mmHg 94%
    07:00 +1°C° 0.2 mm 2 mps 633 mmHg 92%
    08:00 +2°C° 0.2 mm 2 mps 634 mmHg 90%
    09:00 +3°C° 0.2 mm 2 mps 634 mmHg 87%
    10:00 +4°C° 0 mm 2 mps 634 mmHg 86%
    11:00 +4°C° 0 mm 2 mps 634 mmHg 85%
    12:00 +4°C° 0 mm 2 mps 634 mmHg 83%
    13:00 +4°C° 0.1 mm 2 mps 634 mmHg 83%
    14:00 +4°C° 0.1 mm 2 mps 634 mmHg 83%
    15:00 +4°C° 0.1 mm 2 mps 633 mmHg 82%
    16:00 +3°C° 0.1 mm 2 mps 633 mmHg 85%
    17:00 +2°C° 0.1 mm 2 mps 633 mmHg 87%
    18:00 +1°C° 0.1 mm 2 mps 633 mmHg 89%
    19:00 -1°C° 0 mm 2 mps 633 mmHg 90%
    20:00 -2°C° 0 mm 2 mps 633 mmHg 90%
    21:00 -3°C° 0 mm 2 mps 633 mmHg 91%
    22:00 -4°C° 0 mm 2 mps 633 mmHg 88%
    23:00 -4°C° 0 mm 2 mps 633 mmHg 84%
    Show more